Tracking 19709 objects as of 20-Jun-2019
HD Live streaming from Space Station
objects crossing your sky now

INNOSAT 2

Track INNOSAT 2 now!
10-day predictions


NORAD ID: 43738
Int'l Code: 2018-096V
Perigee: 470.7 km
Apogee: 503.3 km
Inclination: 97.5 °
Period: 94.2 minutes
Semi major axis: 6857 km
RCS: Unknown
Launch date: November 29, 2018
Source: (TBD)
Launch site: SRIHARIKOTA (SRI)
aabbcc
Your satellite tracking list
Your tracking list is empty




NASA's NSSDC Master Catalog

Two Line Element Set (TLE):
1 43738U 18096V   19170.82508834  .00001215  00000-0  46055-4 0  9998
2 43738  97.4601 241.3588 0023777 342.0696  17.9702 15.28646985 30958
Source of the keplerian elements: AFSPC